DW8548 Weather Reports


time (UTC)temp
C
wind
direction
speed
KPH
gust
KPH
rain 1hr
cm
rain 24hr
cm
rain mn
cm
humidity
%
barometer
mb
20260506200051 10 0 0.0 0.0 0.00 0.00 0.00 77 1029.5
20260506194556 10 0 0.0 0.0 0.00 0.00 0.00 75 1029.6
20260506193104 11 0 0.0 0.0 0.00 0.00 0.00 73 1029.5
20260506191555 12 0 0.0 1.6 0.00 0.00 0.00 71 1029.5
20260506190101 12 109 0.0 6.4 0.00 0.00 0.00 70 1029.4
20260506184557 12 64 0.0 8.0 0.00 0.00 0.00 72 1029.5
20260506183055 12 138 0.0 1.6 0.00 0.00 0.00 73 1029.6
20260506181554 12 0 0.0 3.2 0.00 0.00 0.00 73 1029.6
20260506180108 12 0 0.0 4.8 0.00 0.00 0.00 72 1029.6
20260506174556 12 0 0.0 3.2 0.00 0.00 0.00 72 1029.6
20260506173058 12 0 0.0 1.6 0.00 0.00 0.00 71 1029.6
20260506171601 12 0 0.0 3.2 0.00 0.00 0.00 70 1029.5
20260506170105 13 0 1.6 9.7 0.00 0.00 0.00 70 1029.4
20260506164557 13 99 0.0 14.5 0.00 0.00 0.00 70 1029.5
20260506163111 12 0 0.0 6.4 0.00 0.00 0.00 69 1029.5
20260506161606 13 0 0.0 6.4 0.00 0.00 0.00 68 1029.6
20260506160055 13 84 0.0 4.8 0.00 0.00 0.00 68 1029.7
20260506154610 13 79 0.0 4.8 0.00 0.00 0.00 69 1029.6
20260506153107 13 0 0.0 3.2 0.00 0.00 0.00 69 1029.5
20260506151558 13 0 0.0 4.8 0.00 0.00 0.00 70 1029.7
20260506144554 13 0 0.0 6.4 0.00 0.00 0.00 71 1029.6
20260506143103 13 0 0.0 1.6 0.00 0.00 0.00 72 1029.7
20260506141555 13 0 0.0 1.6 0.00 0.00 0.00 72 1029.7
20260506140057 13 0 0.0 1.6 0.00 0.00 0.00 73 1029.5
20260506134554 13 0 0.0 1.6 0.00 0.00 0.00 73 1029.5
20260506133057 13 0 0.0 3.2 0.00 0.00 0.00 72 1029.5
20260506131557 13 0 0.0 3.2 0.00 0.00 0.00 73 1029.4
20260506130053 13 0 0.0 1.6 0.00 0.00 0.00 74 1029.3
20260506124553 13 0 0.0 3.2 0.00 0.00 0.00 74 1029.0
20260506123052 13 0 0.0 1.6 0.00 0.00 0.00 76 1029.0
20260506121553 13 0 0.0 1.6 0.00 0.00 0.00 76 1028.9
20260506120058 13 0 0.0 0.0 0.00 0.00 0.00 76 1028.8
20260506114604 13 0 0.0 0.0 0.00 0.00 0.00 73 1028.7
20260506113053 14 0 0.0 0.0 0.00 0.00 0.00 72 1028.6
20260506111555 15 0 0.0 0.0 0.00 0.00 0.00 71 1028.5
20260506110101 15 0 0.0 0.0 0.00 0.00 0.00 69 1028.5
20260506104557 15 0 0.0 0.0 0.00 0.00 0.00 68 1028.5
20260506103052 16 0 0.0 0.0 0.00 0.00 0.00 66 1028.5
20260506101602 17 0 0.0 3.2 0.00 0.00 0.00 63 1028.3
20260506100057 17 0 0.0 4.8 0.00 0.00 0.00 60 1028.2
20260506094621 18 0 0.0 11.3 0.00 0.00 0.00 58 1028.1
20260506093055 18 88 1.6 11.3 0.00 0.00 0.00 57 1027.9
20260506091554 19 0 1.6 8.0 0.00 0.00 0.00 55 1027.8
20260506090053 20 104 1.6 9.7 0.00 0.00 0.00 55 1027.7
20260506084555 20 112 1.6 12.9 0.00 0.00 0.00 54 1027.7
20260506083059 20 111 1.6 9.7 0.00 0.00 0.00 53 1027.6
20260506081554 20 51 3.2 12.9 0.00 0.00 0.00 52 1027.6
20260506073053 21 102 1.6 16.1 0.00 0.00 0.00 50 1027.5
20260506071557 22 294 3.2 12.9 0.00 0.00 0.00 49 1027.4
20260506070103 22 181 1.6 12.9 0.00 0.00 0.00 49 1027.3
20260506061559 22 86 3.2 16.1 0.00 0.00 0.00 49 1027.2
20260506044557 22 68 0.0 14.5 0.00 0.00 0.00 53 1027.6
20260506043055 22 71 0.0 4.8 0.00 0.00 0.00 53 1027.8
20260506041556 21 78 1.6 9.7 0.00 0.00 0.00 55 1028.3
20260506034608 21 0 1.6 16.1 0.00 0.00 0.00 58 1028.6
20260506033059 20 74 1.6 12.9 0.00 0.00 0.00 61 1028.9
20260506031604 19 123 1.6 12.9 0.00 0.00 0.00 62 1029.0
20260506030054 18 126 3.2 14.5 0.00 0.00 0.00 63 1029.0
20260506024555 18 113 1.6 6.4 0.00 0.00 0.00 65 1029.1
20260506023058 17 114 3.2 14.5 0.00 0.00 0.00 66 1029.1
20260506021558 17 96 3.2 12.9 0.00 0.00 0.00 68 1029.2
20260506020100 17 106 3.2 12.9 0.00 0.00 0.00 67 1029.2
20260506014558 17 70 3.2 14.5 0.00 0.00 0.00 69 1029.2
20260506013053 16 119 1.6 11.3 0.00 0.00 0.00 70 1029.1
20260506011601 16 77 1.6 9.7 0.00 0.00 0.00 71 1029.2
20260506010059 15 159 3.2 9.7 0.00 0.00 0.00 72 1029.3
20260506004555 15 67 1.6 11.3 0.00 0.00 0.00 74 1029.2
20260506003057 14 0 1.6 11.3 0.00 0.00 0.00 75 1029.1
20260506001554 13 0 1.6 11.3 0.00 0.00 0.00 77 1028.9
20260506000053 13 86 1.6 14.5 0.00 0.00 0.00 78 1028.7
20260505234600 12 85 1.6 9.7 0.00 0.00 0.00 80 1028.4
20260505233108 12 72 1.6 9.7 0.00 0.00 0.00 81 1028.2
20260505231600 11 0 0.0 11.3 0.00 0.00 0.00 81 1028.0
20260505230057 12 83 0.0 9.7 0.00 0.00 0.00 81 1028.1
20260505224555 11 145 1.6 12.9 0.00 0.00 0.00 81 1028.0
20260505223057 11 78 1.6 6.4 0.00 0.00 0.00 80 1027.8
20260505221558 12 0 1.6 11.3 0.00 0.00 0.00 80 1027.7
20260505220057 12 98 1.6 6.4 0.00 0.00 0.00 79 1027.6
20260505214559 12 84 0.0 4.8 0.00 0.00 0.00 79 1027.3
20260505213102 12 0 0.0 6.4 0.00 0.00 0.00 79 1027.3
20260505211611 12 107 0.0 9.7 0.00 0.00 0.00 79 1027.1
20260505204600 12 93 1.6 9.7 0.00 0.00 0.00 79 1026.8
20260505203058 12 98 1.6 12.9 0.00 0.00 0.00 79 1026.9
20260505201600 12 98 1.6 9.7 0.00 0.00 0.00 80 1026.8